Showing default

FLOCK 4Y 11, 55043

Orbit data source: Space-Track

FLOCK 4Y 11, 55043 is a payload satellite owned by Planet (US) in SSO that was launched on Tue, 03 Jan 2023 UTC via an FALCON 9 launch vehicle from the Air Force Eastern Test Range (AFETR). Payload-class satellites include a variety of spacecraft equipped with specific instruments for various scientific and technological missions. These include communications satellites like Starlink; space stations such as the ISS; scientific satellites like the Hubble; Earth observation satellites from companies like Planet Labs, Umbra, and HawkEye 360; GPS; miniature CubeSats for education and research; and military/defense satellites.

Not visible in the next 10 days
Identifier
55043, 2023-001AL
Orbit
SSO
Country
Flag of USUS
Related business
Manufacturer
Planet
Mission
Non-operational Commercial Imaging
Bus & Motor
CUBESAT 3U, Unknown motor
Mass
5.7 kg wet, 5.7 kg dry
Launch date (UTC)
2023-01-03 (3 years ago)
Launch vehicle
FALCON 9
Launch site
Air Force Eastern Test Range (AFETR)
Object type
Payload
Rocket body
Debris
Shape & HBR
Box + 2 Pan, 0.1 m
Radar Cross Section
0.108 m², Medium (>0.1 m² and < 1m²)

Expand to show TLE details & history
Last TLE update: 23 hours ago

TLE from 23 hours ago
0 FLOCK 4Y 11
1 55043U 23001AL  25259.47754724  .00219401  00000-0  18153-2 0  9993
2 55043  97.3609 334.1242 0005899 275.1356  84.9233 15.69578961151117
Epoch: 2025-09-16T11:27Z
TLE epoch observation values (Epoch: 2025-09-16T11:27:40.081Z)
Latitude
0.00001°
Longitude
166.53991°
Altitude
362.911 km
Speed
7.692 km/s
True Right ascension
22h 16m 29s
True Declination
0° 00' 00"
Sunlit
Object was in full shadow at epoch
Visualization orbit readout
Latitude
Unknown
Longitude
Unknown
Altitude
Unknown
Speed
Unknown
Apparent Right ascension
Unknown
Apparent Declination
Unknown
Sunlit
N/A
Visualization observer readout
Local Sidereal Time
03:03:18
Azimuth
Unknown
Elevation
Unknown
Doppler factor
Unknown
Orbital elements
Apogee altitude
360.973 km
Perigee altitude
353.027 km
Semi-major axis
6,735.137 km
Eccentricity
0.00059
Inclination
97.3609°
RAAN
334.1242°
Arg. of periapsis
275.1356°
True anomaly
84.99064°
Mean anomaly
84.9233°
Eccentric anomaly
84.95697°
Mean motion
3.92666 °/min
Orbital period
91.68 mins
BSTAR
0.0018153
Loading maneuver chart data...
Computing Atmospheric mass density...
Loading historical data...
Loading historical data...
Loading historical data...
Loading historical data...
Loading historical data...
Loading historical data...
Loading historical data...

Documentation

Showing up to 5 results
|